Volver al catálogo

COSMOS 1275 DEB

ActivoPO
NORAD 42206·DEBRIS·🇷🇺 Russia

Lanzado Jun 4, 1981 desde Plesetsk Cosmodrome

Loading…

Próximos Pases (próximas 24 horas)

TLE

ActualizadoSource: Space-Track

Época: Sep 12, 2026, 02:42 UTC

1 42206U 81053TW  26255.11259468  .00000507  00000-0  40764-3 0  9993
2 42206  82.9224  22.6925 0038712 242.9435 238.1324 13.88393476517041

Sigue COSMOS 1275 DEB en tiempo real con AllMySat

Download on the App Store